,,Stat6,,Stat2,,Stat8,,Stat9,,Stat10,,Wind1,,Wind1,
time,status,PA1M_AVG,status,PR1M_SUM,status,RH1M_AVG,status,SR1M_AVG,status,TA1M_AVG,status,W1dAve1m,status,W1sAve1m,
2005-09-03, 00:00:00,VALID,916.927,VALID,0,VALID,100,VALID,-0.0169808,VALID,18.206,VALID,337,VALID,0,
2005-09-03, 00:01:00,VALID,916.93,VALID,0,VALID,100,VALID,-0.0169808,VALID,18.1904,VALID,337,VALID,0,
2005-09-03, 00:02:00,VALID,916.926,VALID,0,VALID,100,VALID,-0.0339617,VALID,18.1938,VALID,337,VALID,0,
2005-09-03, 00:03:00,VALID,916.941,VALID,0,VALID,100,VALID,-0.0169808,VALID,18.1703,VALID,337,VALID,0.0762195,
2005-09-03, 00:04:00,VALID,916.951,VALID,0,VALID,100,VALID,-0.0339617,VALID,18.1576,VALID,337,VALID,0.118056,
2005-09-03, 00:05:00,VALID,916.954,VALID,0,VALID,100,VALID,-0.0169808,VALID,18.135,VALID,337,VALID,0.0213415,
2005-09-03, 00:06:00,VALID,916.957,VALID,0,VALID,100,VALID,-0.0339617,VALID,18.1191,VALID,337,VALID,0.00218023,
2005-09-03, 00:07:00,VALID,916.945,VALID,0,VALID,100,VALID,-0.0509425,VALID,18.097,VALID,337,VALID,0,
2005-09-03, 00:08:00,VALID,916.936,VALID,0,VALID,100,VALID,-0.0509425,VALID,18.064,VALID,337,VALID,0,
2005-09-03, 00:09:00,VALID,916.952,VALID,0,VALID,100,VALID,-0.0339617,VALID,18.0352,VALID,337,VALID,0,
2005-09-03, 00:10:00,VALID,916.945,VALID,0,VALID,100,VALID,-0.0509425,VALID,18.0289,VALID,337,VALID,0,
2005-09-03, 00:11:00,VALID,916.936,VALID,0,VALID,100,VALID,-0.0169808,VALID,17.9837,VALID,337,VALID,0,
2005-09-03, 00:12:00,VALID,916.945,VALID,0,VALID,100,VALID,-0.0339617,VALID,17.9545,VALID,337,VALID,0,
2005-09-03, 00:13:00,VALID,916.928,VALID,0,VALID,100,VALID,-0.0849042,VALID,17.9611,VALID,337,VALID,0,
2005-09-03, 00:14:00,VALID,916.932,VALID,0,VALID,100,VALID,-0.0509425,VALID,17.9579,VALID,337,VALID,0.0457317,
2005-09-03, 00:15:00,VALID,916.921,VALID,0,VALID,100,VALID,-0.0679233,VALID,17.942,VALID,337,VALID,0.191883,
2005-09-03, 00:16:00,VALID,916.925,VALID,0,VALID,100,VALID,-0.101885,VALID,17.8996,VALID,337,VALID,0.114236,
2005-09-03, 00:17:00,VALID,916.919,VALID,0,VALID,100,VALID,-0.0509425,VALID,17.8903,VALID,337,VALID,0.132241,
2005-09-03, 00:18:00,VALID,916.897,VALID,0,VALID,100,VALID,-0.0339617,VALID,17.877,VALID,4,VALID,0.194727,
2005-09-03, 00:19:00,VALID,916.89,VALID,0,VALID,100,VALID,-0.0169808,VALID,17.8668,VALID,38,VALID,0.259629,
2005-09-03, 00:20:00,VALID,916.875,VALID,0,VALID,100,VALID,0,VALID,17.8806,VALID,38,VALID,0.144531,
2005-09-03, 00:21:00,VALID,916.869,VALID,0,VALID,100,VALID,-0.0169808,VALID,17.8578,VALID,38,VALID,0.110465,
2005-09-03, 00:22:00,VALID,916.871,VALID,0,VALID,100,VALID,-0.0339617,VALID,17.8479,VALID,38,VALID,0.0368056,
2005-09-03, 00:23:00,VALID,916.857,VALID,0,VALID,100,VALID,-0.0339617,VALID,17.7967,VALID,38,VALID,0.0332532,
2005-09-03, 00:24:00,VALID,916.855,VALID,0,VALID,100,VALID,-0.0509425,VALID,17.8193,VALID,38,VALID,0.00952744,
2005-09-03, 00:25:00,VALID,916.862,VALID,0,VALID,100,VALID,-0.0339617,VALID,17.829,VALID,38,VALID,0.173874,
2005-09-03, 00:26:00,VALID,916.859,VALID,0,VALID,100,VALID,-0.0339617,VALID,17.8484,VALID,38,VALID,0.482973,
2005-09-03, 00:27:00,VALID,916.87,VALID,0,VALID,100,VALID,-0.0339617,VALID,17.8843,VALID,42,VALID,0.350675,
2005-09-03, 00:28:00,VALID,916.878,VALID,0,VALID,100,VALID,-0.0339617,VALID,17.8417,VALID,57,VALID,0.3621,
2005-09-03, 00:29:00,VALID,916.881,VALID,0,VALID,100,VALID,0,VALID,17.8484,VALID,57,VALID,0.297408,
2005-09-03, 00:30:00,VALID,916.872,VALID,0,VALID,100,VALID,-0.0509425,VALID,17.8516,VALID,57,VALID,0.345833,
2005-09-03, 00:31:00,VALID,916.864,VALID,0,VALID,100,VALID,-0.101885,VALID,17.8523,VALID,57,VALID,0.478125,
2005-09-03, 00:32:00,VALID,916.878,VALID,0,VALID,100,VALID,-0.118866,VALID,17.8041,VALID,57,VALID,0.174924,
2005-09-03, 00:33:00,VALID,916.882,VALID,0,VALID,100,VALID,-0.101885,VALID,17.769,VALID,57,VALID,0.0809152,
2005-09-03, 00:34:00,VALID,916.883,VALID,0,VALID,100,VALID,-0.101885,VALID,17.7621,VALID,57,VALID,0.0139509,
2005-09-03, 00:35:00,VALID,916.88,VALID,0,VALID,100,VALID,-0.101885,VALID,17.7616,VALID,57,VALID,0,
2005-09-03, 00:36:00,VALID,916.881,VALID,0,VALID,100,VALID,-0.0849042,VALID,17.7877,VALID,57,VALID,0,
2005-09-03, 00:37:00,VALID,916.879,VALID,0,VALID,100,VALID,-0.101885,VALID,17.8107,VALID,57,VALID,0,
2005-09-03, 00:38:00,VALID,916.857,VALID,0,VALID,100,VALID,-0.101885,VALID,17.8495,VALID,57,VALID,0,
2005-09-03, 00:39:00,VALID,916.842,VALID,0,VALID,100,VALID,-0.101885,VALID,17.8947,VALID,46,VALID,0.180043,
2005-09-03, 00:40:00,VALID,916.813,VALID,0,VALID,100,VALID,-0.0849042,VALID,17.9498,VALID,27,VALID,0.260671,
2005-09-03, 00:41:00,VALID,916.771,VALID,0,VALID,100,VALID,-0.118866,VALID,17.9689,VALID,27,VALID,0.023628,
2005-09-03, 00:42:00,VALID,916.751,VALID,0,VALID,100,VALID,-0.0849042,VALID,17.9754,VALID,27,VALID,0.00213068,
2005-09-03, 00:43:00,VALID,916.733,VALID,0,VALID,100,VALID,-0.135847,VALID,17.9879,VALID,27,VALID,0,
2005-09-03, 00:44:00,VALID,916.702,VALID,0,VALID,100,VALID,-0.101885,VALID,18.0333,VALID,27,VALID,0,
2005-09-03, 00:45:00,VALID,916.688,VALID,0,VALID,100,VALID,-4.62593e-018,VALID,18.0412,VALID,27,VALID,0,
2005-09-03, 00:46:00,VALID,916.659,VALID,0,VALID,100,VALID,0.101885,VALID,18.0566,VALID,354,VALID,0.521354,
2005-09-03, 00:47:00,VALID,916.653,VALID,0,VALID,100,VALID,0.0849042,VALID,18.0954,VALID,206,VALID,0.440739,
2005-09-03, 00:48:00,VALID,916.634,VALID,0,VALID,100,VALID,0.0679233,VALID,18.1048,VALID,206,VALID,0.439103,
2005-09-03, 00:49:00,VALID,916.62,VALID,0,VALID,100,VALID,0.0679233,VALID,18.1376,VALID,207,VALID,0.436955,
2005-09-03, 00:50:00,VALID,916.606,VALID,0,VALID,100,VALID,0.0849042,VALID,18.1569,VALID,207,VALID,0.00818452,
2005-09-03, 00:51:00,VALID,916.591,VALID,0,VALID,100,VALID,0.0849042,VALID,18.1569,VALID,207,VALID,0.178052,
2005-09-03, 00:52:00,VALID,916.585,VALID,0,VALID,100,VALID,0.101885,VALID,18.1406,VALID,206,VALID,0.40625,
2005-09-03, 00:53:00,VALID,916.59,VALID,0,VALID,100,VALID,0.135847,VALID,18.1341,VALID,206,VALID,0.483487,
2005-09-03, 00:54:00,VALID,916.6,VALID,0,VALID,100,VALID,0.101885,VALID,18.1309,VALID,206,VALID,0.0842634,
2005-09-03, 00:55:00,VALID,916.593,VALID,0,VALID,100,VALID,0.118866,VALID,18.1272,VALID,206,VALID,0.000177557,
2005-09-03, 00:56:00,VALID,916.585,VALID,0,VALID,100,VALID,0.101885,VALID,18.1083,VALID,206,VALID,0.214753,
2005-09-03, 00:57:00,VALID,916.591,VALID,0,VALID,100,VALID,0.118866,VALID,18.0693,VALID,206,VALID,0.0106707,
2005-09-03, 00:58:00,VALID,916.587,VALID,0,VALID,100,VALID,0.0679233,VALID,18.0472,VALID,206,VALID,0,
2005-09-03, 00:59:00,VALID,916.58,VALID,0,VALID,100,VALID,0.101885,VALID,18.0241,VALID,206,VALID,0.0790334,
2005-09-03, 01:00:00,VALID,916.568,VALID,0,VALID,100,VALID,0.0509425,VALID,18.0379,VALID,273,VALID,0.193824,
2005-09-03, 01:01:00,VALID,916.557,VALID,0,VALID,100,VALID,0,VALID,18.0421,VALID,352,VALID,0.427257,
2005-09-03, 01:02:00,VALID,916.548,VALID,0,VALID,100,VALID,0.0169808,VALID,18.0188,VALID,360,VALID,0.184495,
2005-09-03, 01:03:00,VALID,916.533,VALID,0,VALID,100,VALID,-0.0169808,VALID,18.0287,VALID,355,VALID,0.384146,
2005-09-03, 01:04:00,VALID,916.528,VALID,0,VALID,100,VALID,0,VALID,18.0319,VALID,347,VALID,0.15957,
2005-09-03, 01:05:00,VALID,916.518,VALID,0,VALID,100,VALID,0,VALID,17.9999,VALID,338,VALID,0.352134,
2005-09-03, 01:06:00,VALID,916.513,VALID,0,VALID,100,VALID,-0.0339617,VALID,17.9964,VALID,350,VALID,0.359375,
2005-09-03, 01:07:00,VALID,916.521,VALID,0,VALID,100,VALID,0,VALID,17.9805,VALID,2,VALID,0.720203,
2005-09-03, 01:08:00,VALID,916.514,VALID,0,VALID,100,VALID,-0.0169808,VALID,18.0222,VALID,338,VALID,0.952943,
2005-09-03, 01:09:00,VALID,916.524,VALID,0,VALID,100,VALID,0,VALID,18.0836,VALID,345,VALID,0.58631,
2005-09-03, 01:10:00,VALID,916.55,VALID,0,VALID,100,VALID,0,VALID,18.103,VALID,340,VALID,0.728051,
2005-09-03, 01:11:00,VALID,916.543,VALID,0,VALID,100,VALID,0,VALID,18.129,VALID,337,VALID,0.150152,
2005-09-03, 01:12:00,VALID,916.54,VALID,0,VALID,100,VALID,0,VALID,18.1415,VALID,338,VALID,0.385045,
2005-09-03, 01:13:00,VALID,916.536,VALID,0,VALID,100,VALID,0,VALID,18.1844,VALID,347,VALID,0.454327,
2005-09-03, 01:14:00,VALID,916.544,VALID,0,VALID,100,VALID,0.0339617,VALID,18.2196,VALID,357,VALID,0.418501,
2005-09-03, 01:15:00,VALID,916.534,VALID,0,VALID,100,VALID,0,VALID,18.2261,VALID,4,VALID,0.365625,
2005-09-03, 01:16:00,VALID,916.542,VALID,0,VALID,100,VALID,0.0169808,VALID,18.2259,VALID,1,VALID,0.24628,
2005-09-03, 01:17:00,VALID,916.539,VALID,0,VALID,100,VALID,0,VALID,18.2226,VALID,288,VALID,0.767912,
2005-09-03, 01:18:00,VALID,916.532,VALID,0,VALID,100,VALID,0.0169808,VALID,18.2741,VALID,288,VALID,0.695143,
2005-09-03, 01:19:00,VALID,916.516,VALID,0,VALID,100,VALID,0,VALID,18.319,VALID,5,VALID,0.602307,
2005-09-03, 01:20:00,VALID,916.503,VALID,0,VALID,100,VALID,0,VALID,18.3163,VALID,8,VALID,0.851381,
2005-09-03, 01:21:00,VALID,916.477,VALID,0,VALID,100,VALID,0.0169808,VALID,18.3453,VALID,5,VALID,0.745164,
2005-09-03, 01:22:00,VALID,916.458,VALID,0,VALID,100,VALID,0,VALID,18.3744,VALID,355,VALID,0.641335,
2005-09-03, 01:23:00,VALID,916.434,VALID,0,VALID,100,VALID,0,VALID,18.3811,VALID,328,VALID,0.550305,
2005-09-03, 01:24:00,VALID,916.424,VALID,0,VALID,100,VALID,0.0169808,VALID,18.3843,VALID,294,VALID,0.512091,
2005-09-03, 01:25:00,VALID,916.391,VALID,0,VALID,100,VALID,-0.0169808,VALID,18.4002,VALID,275,VALID,0.249637,
2005-09-03, 01:26:00,VALID,916.365,VALID,0,VALID,100,VALID,0,VALID,18.3998,VALID,275,VALID,0.381541,
2005-09-03, 01:27:00,VALID,916.33,VALID,0,VALID,100,VALID,0,VALID,18.4002,VALID,274,VALID,0.040625,
2005-09-03, 01:28:00,VALID,916.305,VALID,0,VALID,100,VALID,0.0169808,VALID,18.3968,VALID,275,VALID,0,
2005-09-03, 01:29:00,VALID,916.283,VALID,0,VALID,100,VALID,0.0169808,VALID,18.3901,VALID,275,VALID,0,
2005-09-03, 01:30:00,VALID,916.282,VALID,0,VALID,100,VALID,0.0169808,VALID,18.3871,VALID,275,VALID,0,
2005-09-03, 01:31:00,VALID,916.265,VALID,0,VALID,100,VALID,-0.0169808,VALID,18.3742,VALID,275,VALID,0,
2005-09-03, 01:32:00,VALID,916.265,VALID,0,VALID,100,VALID,-0.0169808,VALID,18.3444,VALID,275,VALID,0,
2005-09-03, 01:33:00,VALID,916.251,VALID,0,VALID,100,VALID,-0.0169808,VALID,18.3031,VALID,275,VALID,0,
2005-09-03, 01:34:00,VALID,916.256,VALID,0,VALID,100,VALID,0,VALID,18.3031,VALID,325,VALID,0.365007,
2005-09-03, 01:35:00,VALID,916.247,VALID,0,VALID,100,VALID,0,VALID,18.2932,VALID,356,VALID,0.316679,
2005-09-03, 01:36:00,VALID,916.235,VALID,0,VALID,100,VALID,0,VALID,18.2646,VALID,356,VALID,0.36582,
2005-09-03, 01:37:00,VALID,916.224,VALID,0,VALID,100,VALID,0,VALID,18.2224,VALID,356,VALID,0.603051,
2005-09-03, 01:38:00,VALID,916.226,VALID,0,VALID,100,VALID,0.0169808,VALID,18.2033,VALID,358,VALID,0.648082,
2005-09-03, 01:39:00,VALID,916.194,VALID,0,VALID,100,VALID,-0.0169808,VALID,18.213,VALID,2,VALID,0.825149,
2005-09-03, 01:40:00,VALID,916.183,VALID,0,VALID,100,VALID,0.0169808,VALID,18.2058,VALID,10,VALID,0.983073,
2005-09-03, 01:41:00,VALID,916.167,VALID,0,VALID,100,VALID,-0.0169808,VALID,18.1678,VALID,24,VALID,0.948661,
2005-09-03, 01:42:00,VALID,916.157,VALID,0,VALID,100,VALID,0,VALID,18.1518,VALID,23,VALID,0.9109,
2005-09-03, 01:43:00,VALID,916.135,VALID,0,VALID,100,VALID,-0.0169808,VALID,18.132,VALID,26,VALID,0.693132,
2005-09-03, 01:44:00,VALID,916.135,VALID,0,VALID,99.9753,VALID,0,VALID,18.0967,VALID,25,VALID,0.646949,
2005-09-03, 01:45:00,VALID,916.146,VALID,0,VALID,99.9738,VALID,-0.0169808,VALID,18.0677,VALID,21,VALID,0.863542,
2005-09-03, 01:46:00,VALID,916.155,VALID,0,VALID,100,VALID,0,VALID,18.1099,VALID,16,VALID,0.662997,
2005-09-03, 01:47:00,VALID,916.168,VALID,0,VALID,100,VALID,0,VALID,18.1096,VALID,16,VALID,0.322917,
2005-09-03, 01:48:00,VALID,916.183,VALID,0,VALID,100,VALID,0,VALID,18.1779,VALID,360,VALID,0.855152,
2005-09-03, 01:49:00,VALID,916.183,VALID,0,VALID,100,VALID,0,VALID,18.2681,VALID,353,VALID,0.624112,
2005-09-03, 01:50:00,VALID,916.166,VALID,0,VALID,100,VALID,-0.0169808,VALID,18.3354,VALID,354,VALID,0.565358,
2005-09-03, 01:51:00,VALID,916.163,VALID,0,VALID,100,VALID,0,VALID,18.3878,VALID,346,VALID,0.578125,
2005-09-03, 01:52:00,VALID,916.17,VALID,0,VALID,100,VALID,0,VALID,18.3935,VALID,4,VALID,0.678125,
2005-09-03, 01:53:00,VALID,916.154,VALID,0,VALID,99.9082,VALID,0,VALID,18.4261,VALID,19,VALID,0.549237,
2005-09-03, 01:54:00,VALID,916.154,VALID,0,VALID,99.6239,VALID,-0.0169808,VALID,18.4131,VALID,19,VALID,0.565589,
2005-09-03, 01:55:00,VALID,916.145,VALID,0,VALID,99.4293,VALID,0,VALID,18.3769,VALID,13,VALID,0.830729,
2005-09-03, 01:56:00,VALID,916.139,VALID,0,VALID,99.3479,VALID,0.0509425,VALID,18.3709,VALID,18,VALID,1.04936,
2005-09-03, 01:57:00,VALID,916.125,VALID,0,VALID,99.4077,VALID,0,VALID,18.3744,VALID,15,VALID,1.46928,
2005-09-03, 01:58:00,VALID,916.144,VALID,0,VALID,99.4573,VALID,0,VALID,18.4062,VALID,18,VALID,1.25654,
2005-09-03, 01:59:00,VALID,916.164,VALID,0,VALID,99.3759,VALID,0,VALID,18.4194,VALID,15,VALID,1.22012,
2005-09-03, 02:00:00,VALID,916.191,VALID,0,VALID,99.3161,VALID,0,VALID,18.439,VALID,18,VALID,1.19896,
2005-09-03, 02:01:00,VALID,916.214,VALID,0,VALID,99.4204,VALID,-0.0169808,VALID,18.445,VALID,18,VALID,1.08906,
2005-09-03, 02:02:00,VALID,916.215,VALID,0,VALID,99.4649,VALID,0,VALID,18.4867,VALID,18,VALID,1.39844,
2005-09-03, 02:03:00,VALID,916.212,VALID,0,VALID,99.3479,VALID,0,VALID,18.5808,VALID,25,VALID,1.33339,
2005-09-03, 02:04:00,VALID,916.201,VALID,0,VALID,99.0351,VALID,0,VALID,18.6385,VALID,24,VALID,1.21984,
2005-09-03, 02:05:00,VALID,916.202,VALID,0,VALID,98.7274,VALID,0,VALID,18.6549,VALID,23,VALID,0.91424,
2005-09-03, 02:06:00,VALID,916.194,VALID,0,VALID,98.5811,VALID,-0.0169808,VALID,18.6219,VALID,20,VALID,0.816406,
2005-09-03, 02:07:00,VALID,916.189,VALID,0,VALID,98.6905,VALID,0,VALID,18.6226,VALID,10,VALID,0.619496,
2005-09-03, 02:08:00,VALID,916.186,VALID,0,VALID,98.7337,VALID,0,VALID,18.6032,VALID,10,VALID,0.792188,
2005-09-03, 02:09:00,VALID,916.18,VALID,0,VALID,98.8139,VALID,0,VALID,18.5873,VALID,10,VALID,0.914773,
2005-09-03, 02:10:00,VALID,916.181,VALID,0,VALID,98.9067,VALID,0,VALID,18.5907,VALID,9,VALID,0.760045,
2005-09-03, 02:11:00,VALID,916.183,VALID,0,VALID,98.9143,VALID,0,VALID,18.5776,VALID,9,VALID,0.562686,
2005-09-03, 02:12:00,VALID,916.206,VALID,0,VALID,98.9614,VALID,0,VALID,18.5744,VALID,9,VALID,0.294331,
2005-09-03, 02:13:00,VALID,916.203,VALID,0,VALID,99.0555,VALID,0,VALID,18.5644,VALID,9,VALID,0.257626,
2005-09-03, 02:14:00,VALID,916.211,VALID,0,VALID,99.072,VALID,-0.0339617,VALID,18.552,VALID,9,VALID,0.0965278,
2005-09-03, 02:15:00,VALID,916.217,VALID,0,VALID,98.9168,VALID,0,VALID,18.4996,VALID,9,VALID,0.212358,
2005-09-03, 02:16:00,VALID,916.22,VALID,0,VALID,99.0211,VALID,0,VALID,18.4747,VALID,9,VALID,0.234738,
2005-09-03, 02:17:00,VALID,916.232,VALID,0,VALID,98.9855,VALID,-0.0169808,VALID,18.4125,VALID,5,VALID,0.350142,
2005-09-03, 02:18:00,VALID,916.242,VALID,0,VALID,99.3988,VALID,0,VALID,18.4095,VALID,315,VALID,0.53497,
2005-09-03, 02:19:00,VALID,916.24,VALID,0,VALID,99.6938,VALID,0,VALID,18.4254,VALID,296,VALID,0.302591,
2005-09-03, 02:20:00,VALID,916.236,VALID,0,VALID,99.8464,VALID,0,VALID,18.4321,VALID,267,VALID,0.468133,
2005-09-03, 02:21:00,VALID,916.233,VALID,0,VALID,99.9741,VALID,-0.0509425,VALID,18.4231,VALID,263,VALID,0.586509,
2005-09-03, 02:22:00,VALID,916.226,VALID,0,VALID,100,VALID,-0.0679233,VALID,18.4198,VALID,263,VALID,0.363554,
2005-09-03, 02:23:00,VALID,916.225,VALID,0,VALID,100,VALID,-0.0169808,VALID,18.4189,VALID,263,VALID,0.387576,
2005-09-03, 02:24:00,VALID,916.207,VALID,0,VALID,100,VALID,0,VALID,18.4556,VALID,263,VALID,0.280705,
2005-09-03, 02:25:00,VALID,916.213,VALID,0,VALID,100,VALID,0,VALID,18.471,VALID,263,VALID,0.238281,
2005-09-03, 02:26:00,VALID,916.223,VALID,0,VALID,99.9964,VALID,0,VALID,18.4583,VALID,263,VALID,0,
2005-09-03, 02:27:00,VALID,916.234,VALID,0,VALID,99.9379,VALID,0,VALID,18.4028,VALID,263,VALID,0.153392,
2005-09-03, 02:28:00,VALID,916.247,VALID,0,VALID,99.8591,VALID,0,VALID,18.3675,VALID,263,VALID,0.0133384,
2005-09-03, 02:29:00,VALID,916.238,VALID,0,VALID,99.9903,VALID,0,VALID,18.3613,VALID,263,VALID,0.0065407,
2005-09-03, 02:30:00,VALID,916.238,VALID,0,VALID,100,VALID,-0.0169808,VALID,18.3645,VALID,263,VALID,0.000181686,
2005-09-03, 02:31:00,VALID,916.231,VALID,0,VALID,100,VALID,0,VALID,18.3613,VALID,263,VALID,0.201882,
2005-09-03, 02:32:00,VALID,916.232,VALID,0,VALID,100,VALID,-0.0169808,VALID,18.3257,VALID,263,VALID,0.286979,
2005-09-03, 02:33:00,VALID,916.226,VALID,0,VALID,100,VALID,0,VALID,18.287,VALID,263,VALID,0.0907738,
2005-09-03, 02:34:00,VALID,916.222,VALID,0,VALID,100,VALID,0,VALID,18.2969,VALID,263,VALID,0.000952744,
2005-09-03, 02:35:00,VALID,916.213,VALID,0,VALID,100,VALID,0,VALID,18.3294,VALID,263,VALID,0.0607244,
2005-09-03, 02:36:00,VALID,916.196,VALID,0,VALID,100,VALID,0,VALID,18.3739,VALID,263,VALID,0.0285823,
2005-09-03, 02:37:00,VALID,916.191,VALID,0,VALID,100,VALID,0,VALID,18.3901,VALID,263,VALID,0.0674716,
2005-09-03, 02:38:00,VALID,916.169,VALID,0,VALID,100,VALID,-0.0169808,VALID,18.3742,VALID,265,VALID,0.2625,
2005-09-03, 02:39:00,VALID,916.145,VALID,0,VALID,100,VALID,0.0169808,VALID,18.3839,VALID,271,VALID,0.078125,
2005-09-03, 02:40:00,VALID,916.118,VALID,0,VALID,100,VALID,0,VALID,18.4196,VALID,333,VALID,0.150981,
2005-09-03, 02:41:00,VALID,916.08,VALID,0,VALID,100,VALID,0,VALID,18.4161,VALID,333,VALID,0.0241997,
2005-09-03, 02:42:00,VALID,916.066,VALID,0,VALID,100,VALID,0,VALID,18.4095,VALID,333,VALID,0.213281,
2005-09-03, 02:43:00,VALID,916.069,VALID,0,VALID,100,VALID,0.0169808,VALID,18.4097,VALID,333,VALID,0.110069,
2005-09-03, 02:44:00,VALID,916.074,VALID,0,VALID,100,VALID,-0.0169808,VALID,18.4131,VALID,333,VALID,0.0864583,
2005-09-03, 02:45:00,VALID,916.072,VALID,0,VALID,100,VALID,0,VALID,18.436,VALID,333,VALID,0,
2005-09-03, 02:46:00,VALID,916.075,VALID,0,VALID,100,VALID,0,VALID,18.4454,VALID,333,VALID,0,
2005-09-03, 02:47:00,VALID,916.076,VALID,0,VALID,100,VALID,0,VALID,18.4387,VALID,333,VALID,0.0340402,
2005-09-03, 02:48:00,VALID,916.094,VALID,0,VALID,99.9435,VALID,0,VALID,18.4231,VALID,333,VALID,0.0804688,
2005-09-03, 02:49:00,VALID,916.095,VALID,0,VALID,99.648,VALID,0,VALID,18.3419,VALID,333,VALID,0,
2005-09-03, 02:50:00,VALID,916.126,VALID,0,VALID,99.8548,VALID,0,VALID,18.319,VALID,333,VALID,0.000173611,
2005-09-03, 02:51:00,VALID,916.115,VALID,0,VALID,100,VALID,0,VALID,18.3587,VALID,333,VALID,0.248365,
2005-09-03, 02:52:00,VALID,916.115,VALID,0,VALID,100,VALID,0,VALID,18.3518,VALID,345,VALID,0.53016,
2005-09-03, 02:53:00,VALID,916.111,VALID,0,VALID,99.9552,VALID,0,VALID,18.3029,VALID,357,VALID,0.702762,
2005-09-03, 02:54:00,VALID,916.106,VALID,0,VALID,100,VALID,0,VALID,18.316,VALID,3,VALID,0.865057,
2005-09-03, 02:55:00,VALID,916.094,VALID,0,VALID,100,VALID,0.0339617,VALID,18.332,VALID,8,VALID,0.955487,
2005-09-03, 02:56:00,VALID,916.073,VALID,0,VALID,100,VALID,0,VALID,18.3158,VALID,10,VALID,0.880526,
2005-09-03, 02:57:00,VALID,916.085,VALID,0,VALID,100,VALID,-0.0169808,VALID,18.2872,VALID,7,VALID,0.977951,
2005-09-03, 02:58:00,VALID,916.089,VALID,0,VALID,100,VALID,-0.0169808,VALID,18.2711,VALID,4,VALID,0.80816,
2005-09-03, 02:59:00,VALID,916.087,VALID,0,VALID,100,VALID,-0.0169808,VALID,18.2646,VALID,9,VALID,0.848047,
2005-09-03, 03:00:00,VALID,916.077,VALID,0,VALID,100,VALID,0,VALID,18.284,VALID,12,VALID,1.17893,
2005-09-03, 03:01:00,VALID,916.084,VALID,0,VALID,100,VALID,0,VALID,18.3096,VALID,9,VALID,1.02148,
2005-09-03, 03:02:00,VALID,916.102,VALID,0,VALID,100,VALID,-0.0169808,VALID,18.3423,VALID,1,VALID,0.852983,
2005-09-03, 03:03:00,VALID,916.107,VALID,0,VALID,100,VALID,0,VALID,18.3578,VALID,359,VALID,0.628089,
2005-09-03, 03:04:00,VALID,916.092,VALID,0,VALID,100,VALID,-0.0169808,VALID,18.4039,VALID,359,VALID,0.386433,
2005-09-03, 03:05:00,VALID,916.081,VALID,0,VALID,100,VALID,-0.0339617,VALID,18.4131,VALID,6,VALID,0.59375,
2005-09-03, 03:06:00,VALID,916.073,VALID,0,VALID,100,VALID,-0.0339617,VALID,18.4618,VALID,19,VALID,0.660442,
2005-09-03, 03:07:00,VALID,916.086,VALID,0,VALID,100,VALID,-0.0169808,VALID,18.4842,VALID,18,VALID,0.638263,
2005-09-03, 03:08:00,VALID,916.091,VALID,0,VALID,99.8858,VALID,-0.0339617,VALID,18.5036,VALID,17,VALID,0.481076,
2005-09-03, 03:09:00,VALID,916.083,VALID,0,VALID,99.7599,VALID,-0.0169808,VALID,18.507,VALID,17,VALID,0.728051,
2005-09-03, 03:10:00,VALID,916.082,VALID,0,VALID,99.7103,VALID,-0.0169808,VALID,18.5328,VALID,17,VALID,0.816051,
2005-09-03, 03:11:00,VALID,916.087,VALID,0,VALID,99.5628,VALID,-0.0339617,VALID,18.5718,VALID,17,VALID,0.622275,
2005-09-03, 03:12:00,VALID,916.09,VALID,0,VALID,99.4229,VALID,0,VALID,18.5746,VALID,17,VALID,0.478601,
2005-09-03, 03:13:00,VALID,916.09,VALID,0,VALID,99.3428,VALID,0,VALID,18.5974,VALID,17,VALID,0.444196,
2005-09-03, 03:14:00,VALID,916.09,VALID,0,VALID,99.3149,VALID,0,VALID,18.591,VALID,17,VALID,0.441592,
2005-09-03, 03:15:00,VALID,916.089,VALID,0,VALID,99.2208,VALID,0,VALID,18.6004,VALID,17,VALID,0.523256,
2005-09-03, 03:16:00,VALID,916.082,VALID,0,VALID,99.1546,VALID,-0.0169808,VALID,18.6071,VALID,17,VALID,0.483631,
2005-09-03, 03:17:00,VALID,916.081,VALID,0,VALID,98.9194,VALID,-0.0169808,VALID,18.594,VALID,17,VALID,0.497713,
2005-09-03, 03:18:00,VALID,916.072,VALID,0,VALID,98.9283,VALID,-0.0169808,VALID,18.5718,VALID,17,VALID,0.247638,
2005-09-03, 03:19:00,VALID,916.062,VALID,0,VALID,99.0694,VALID,-0.0169808,VALID,18.5555,VALID,17,VALID,0.109776,
2005-09-03, 03:20:00,VALID,916.046,VALID,0,VALID,99.1864,VALID,-0.0169808,VALID,18.5354,VALID,17,VALID,0.0659299,
2005-09-03, 03:21:00,VALID,916.041,VALID,0,VALID,99.3123,VALID,-0.0169808,VALID,18.549,VALID,17,VALID,0.323153,
2005-09-03, 03:22:00,VALID,916.033,VALID,0,VALID,99.292,VALID,0,VALID,18.5582,VALID,17,VALID,0.135298,
2005-09-03, 03:23:00,VALID,916.033,VALID,0,VALID,99.2869,VALID,-0.0169808,VALID,18.5776,VALID,17,VALID,0.260975,
2005-09-03, 03:24:00,VALID,916.047,VALID,0,VALID,99.1724,VALID,0,VALID,18.587,VALID,17,VALID,0.0211806,
2005-09-03, 03:25:00,VALID,916.035,VALID,0,VALID,99.0377,VALID,0,VALID,18.5806,VALID,17,VALID,0,
2005-09-03, 03:26:00,VALID,916.032,VALID,0,VALID,99.0974,VALID,-0.0169808,VALID,18.5649,VALID,17,VALID,0.009375,
2005-09-03, 03:27:00,VALID,916.025,VALID,0,VALID,99.2131,VALID,0,VALID,18.5781,VALID,358,VALID,0.584077,
2005-09-03, 03:28:00,VALID,915.997,VALID,0,VALID,99.1394,VALID,-0.0169808,VALID,18.5873,VALID,358,VALID,0.163352,
2005-09-03, 03:29:00,VALID,915.973,VALID,0,VALID,98.9741,VALID,0,VALID,18.5744,VALID,359,VALID,0.149554,
2005-09-03, 03:30:00,VALID,915.943,VALID,0,VALID,98.9855,VALID,0,VALID,18.5677,VALID,358,VALID,0.274962,
2005-09-03, 03:31:00,VALID,915.918,VALID,0,VALID,99.0961,VALID,0,VALID,18.59,VALID,355,VALID,0.304874,
2005-09-03, 03:32:00,VALID,915.893,VALID,0,VALID,99.0656,VALID,0.0169808,VALID,18.6161,VALID,353,VALID,0.265811,
2005-09-03, 03:33:00,VALID,915.88,VALID,0,VALID,98.9359,VALID,0,VALID,18.6293,VALID,353,VALID,0.302269,
2005-09-03, 03:34:00,VALID,915.863,VALID,0,VALID,98.8316,VALID,0,VALID,18.6256,VALID,353,VALID,0.427689,
2005-09-03, 03:35:00,VALID,915.855,VALID,0,VALID,98.7846,VALID,0,VALID,18.6258,VALID,353,VALID,0.295632,
2005-09-03, 03:36:00,VALID,915.832,VALID,0,VALID,98.8355,VALID,0,VALID,18.6322,VALID,353,VALID,0.547476,
2005-09-03, 03:37:00,VALID,915.815,VALID,0,VALID,98.852,VALID,0.0169808,VALID,18.632,VALID,353,VALID,0.150213,
2005-09-03, 03:38:00,VALID,915.806,VALID,0,VALID,98.852,VALID,0,VALID,18.6486,VALID,329,VALID,0.301314,
2005-09-03, 03:39:00,VALID,915.812,VALID,0,VALID,98.8406,VALID,0,VALID,18.6613,VALID,314,VALID,0.223828,
2005-09-03, 03:40:00,VALID,915.798,VALID,0,VALID,98.7159,VALID,0,VALID,18.6675,VALID,318,VALID,0.107337,
2005-09-03, 03:41:00,VALID,915.788,VALID,0,VALID,98.7515,VALID,0,VALID,18.6678,VALID,326,VALID,0.255944,
2005-09-03, 03:42:00,VALID,915.782,VALID,0,VALID,98.7515,VALID,0,VALID,18.6738,VALID,326,VALID,0.20847,
2005-09-03, 03:43:00,VALID,915.771,VALID,0,VALID,98.6498,VALID,0,VALID,18.677,VALID,326,VALID,0.181176,